RYR5SX LFML-ELLX

Flight info

Callsign RYR5SX
Flight time 1h 2m
Altitude 32000
Route ETREK DCT LUXAN DCT LTP DCT SOPLO DCT OMASI DCT KINNI DCT GILIR DCT PENDU DCT IXILU DCT EPL G21 GIVOR
Aircraft B38M/M-SDE1FGHILORVWXY/HB1

Departure

Time 2026-04-28 09:16
Airport Marseille Provence Airport (LFML)

Arrival

Time 2026-04-28 10:19
Airport Luxembourg-Findel International Airport (ELLX)
Time Latitude Longitude Altitude Speed Heading
2026-04-28 08:48 43.44169 5.21751 34 ft 0 kts 88°
2026-04-28 09:10 43.44168 5.21753 34 ft 1 kts 99°
2026-04-28 09:10 43.44158 5.21767 34 ft 4 kts 136°
2026-04-28 09:10 43.44130 5.21796 35 ft 7 kts 156°
2026-04-28 09:11 43.44084 5.21771 36 ft 9 kts 220°
2026-04-28 09:11 43.44024 5.21694 36 ft 12 kts 223°
2026-04-28 09:11 43.43979 5.21696 37 ft 6 kts 135°
2026-04-28 09:11 43.43945 5.21749 38 ft 10 kts 133°
2026-04-28 09:12 43.43888 5.21832 40 ft 15 kts 134°
2026-04-28 09:12 43.43800 5.21956 44 ft 21 kts 134°
2026-04-28 09:12 43.43669 5.22082 45 ft 24 kts 149°
2026-04-28 09:12 43.43522 5.22200 51 ft 24 kts 150°
2026-04-28 09:13 43.43377 5.22292 53 ft 22 kts 166°
2026-04-28 09:13 43.43265 5.22415 56 ft 20 kts 133°
2026-04-28 09:13 43.43170 5.22552 61 ft 20 kts 134°
2026-04-28 09:13 43.43075 5.22689 68 ft 21 kts 134°
2026-04-28 09:14 43.42968 5.22840 71 ft 22 kts 134°
2026-04-28 09:14 43.42851 5.22963 71 ft 21 kts 177°
2026-04-28 09:14 43.42743 5.22852 68 ft 20 kts 225°
2026-04-28 09:14 43.42660 5.22690 65 ft 22 kts 251°
2026-04-28 09:15 43.42616 5.22482 67 ft 22 kts 253°
2026-04-28 09:15 43.42661 5.22328 67 ft 22 kts 315°
2026-04-28 09:15 43.42896 5.22008 58 ft 87 kts 315°
2026-04-28 09:15 43.43521 5.21146 37 ft 164 kts 314°
2026-04-28 09:16 43.44406 5.19920 571 ft 188 kts 314°
2026-04-28 09:16 43.45365 5.18583 1472 ft 201 kts 315°
2026-04-28 09:16 43.46368 5.17195 2163 ft 216 kts 315°
2026-04-28 09:16 43.47494 5.15639 2491 ft 241 kts 315°
2026-04-28 09:17 43.48725 5.13935 3024 ft 256 kts 314°
2026-04-28 09:17 43.50019 5.12140 3569 ft 271 kts 314°
2026-04-28 09:17 43.51339 5.10308 4366 ft 272 kts 314°
2026-04-28 09:17 43.52684 5.08445 5145 ft 274 kts 314°
2026-04-28 09:18 43.54036 5.06571 5931 ft 277 kts 314°
2026-04-28 09:18 43.55399 5.04678 6718 ft 278 kts 314°
2026-04-28 09:18 43.56764 5.02780 7472 ft 279 kts 314°
2026-04-28 09:18 43.58128 5.00860 8235 ft 280 kts 314°
2026-04-28 09:19 43.59490 4.98933 9002 ft 281 kts 314°
2026-04-28 09:19 43.60858 4.96997 9762 ft 282 kts 314°
2026-04-28 09:19 43.62221 4.95068 10356 ft 289 kts 313°
2026-04-28 09:19 43.63668 4.93018 10610 ft 308 kts 313°
2026-04-28 09:20 43.65218 4.90822 10807 ft 328 kts 313°
2026-04-28 09:20 43.66871 4.88513 11040 ft 344 kts 317°
2026-04-28 09:20 43.68919 4.86828 11552 ft 351 kts 339°
2026-04-28 09:20 43.71269 4.85839 12180 ft 356 kts 342°
2026-04-28 09:21 43.73659 4.84863 12834 ft 360 kts 342°
2026-04-28 09:21 43.76085 4.83891 13519 ft 364 kts 342°
2026-04-28 09:21 43.78537 4.82920 14152 ft 368 kts 342°
2026-04-28 09:21 43.80995 4.81951 14774 ft 372 kts 342°
2026-04-28 09:22 43.83525 4.80955 15424 ft 375 kts 342°
2026-04-28 09:22 43.86019 4.79973 16046 ft 379 kts 341°
2026-04-28 09:22 43.88570 4.78967 16659 ft 382 kts 341°
2026-04-28 09:22 43.91146 4.77952 17264 ft 386 kts 341°
2026-04-28 09:23 43.93753 4.76923 17868 ft 389 kts 341°
2026-04-28 09:23 43.95481 4.76241 18258 ft 392 kts 341°
2026-04-28 09:23 43.98119 4.75199 18764 ft 395 kts 341°
2026-04-28 09:23 44.00812 4.74305 19273 ft 399 kts 345°
2026-04-28 09:24 44.04426 4.73223 19939 ft 403 kts 344°
2026-04-28 09:24 44.06283 4.72657 20282 ft 405 kts 344°
2026-04-28 09:24 44.09049 4.71806 20787 ft 407 kts 344°
2026-04-28 09:24 44.11793 4.70959 21281 ft 410 kts 344°
2026-04-28 09:25 44.14619 4.70246 21769 ft 416 kts 354°
2026-04-28 09:25 44.17523 4.70628 22320 ft 424 kts 12°
2026-04-28 09:25 44.20285 4.72212 22783 ft 433 kts 28°
2026-04-28 09:25 44.22886 4.74348 23275 ft 435 kts 26°
2026-04-28 09:26 44.25533 4.76344 23720 ft 438 kts 25°
2026-04-28 09:26 44.28233 4.78344 24131 ft 441 kts 25°
2026-04-28 09:26 44.30964 4.80344 24561 ft 443 kts 25°
2026-04-28 09:26 44.33718 4.82353 24975 ft 446 kts 25°
2026-04-28 09:27 44.39239 4.86377 25785 ft 452 kts 25°
2026-04-28 09:27 44.42035 4.88418 26165 ft 454 kts 24°
2026-04-28 09:27 44.44854 4.90478 26565 ft 457 kts 24°
2026-04-28 09:28 44.47680 4.92545 26940 ft 459 kts 24°
2026-04-28 09:28 44.50517 4.94623 27325 ft 462 kts 24°
2026-04-28 09:28 44.53396 4.96653 27696 ft 463 kts 21°
2026-04-28 09:28 44.56357 4.98502 28064 ft 465 kts 20°
2026-04-28 09:29 44.59318 5.00377 28404 ft 468 kts 21°
2026-04-28 09:29 44.62249 5.02253 28792 ft 470 kts 21°
2026-04-28 09:29 44.65233 5.04169 29132 ft 472 kts 21°
2026-04-28 09:29 44.68227 5.06093 29482 ft 475 kts 21°
2026-04-28 09:30 44.71241 5.08034 29813 ft 477 kts 21°
2026-04-28 09:30 44.74275 5.09991 30127 ft 479 kts 21°
2026-04-28 09:30 44.77322 5.11956 30416 ft 481 kts 21°
2026-04-28 09:30 44.80370 5.13927 30701 ft 483 kts 21°
2026-04-28 09:31 44.83431 5.15907 31049 ft 483 kts 21°
2026-04-28 09:31 44.86496 5.17892 31466 ft 482 kts 21°
2026-04-28 09:31 44.89542 5.19866 31866 ft 482 kts 21°
2026-04-28 09:31 44.92561 5.21826 32053 ft 484 kts 21°
2026-04-28 09:32 44.98669 5.25795 32031 ft 481 kts 20°
2026-04-28 09:32 45.04758 5.29745 32034 ft 482 kts 20°
2026-04-28 09:33 45.10859 5.33713 32039 ft 482 kts 20°
2026-04-28 09:33 45.16928 5.37668 32089 ft 483 kts 20°
2026-04-28 09:34 45.19995 5.39670 32475 ft 482 kts 20°
2026-04-28 09:34 45.23040 5.41661 32876 ft 481 kts 20°
2026-04-28 09:34 45.26085 5.43654 33254 ft 481 kts 20°
2026-04-28 09:34 45.29084 5.45619 33600 ft 481 kts 20°
2026-04-28 09:35 45.32131 5.47618 33923 ft 481 kts 20°
2026-04-28 09:35 45.35176 5.49619 34215 ft 481 kts 20°
2026-04-28 09:35 45.38213 5.51615 34558 ft 479 kts 20°
2026-04-28 09:35 45.41243 5.53610 34879 ft 478 kts 20°
2026-04-28 09:36 45.44265 5.55602 35192 ft 478 kts 20°
2026-04-28 09:36 45.47247 5.57570 35484 ft 477 kts 20°
2026-04-28 09:36 45.50262 5.59563 35792 ft 476 kts 20°
2026-04-28 09:36 45.53270 5.61552 36033 ft 476 kts 20°
2026-04-28 09:37 45.59284 5.65538 36046 ft 474 kts 20°
2026-04-28 09:37 45.65259 5.69506 36054 ft 474 kts 20°
2026-04-28 09:38 45.71210 5.73483 36024 ft 475 kts 22°
2026-04-28 09:38 45.73974 5.76128 36023 ft 482 kts 38°
2026-04-28 09:38 45.76493 5.79338 36041 ft 485 kts 37°
2026-04-28 09:39 45.81518 5.85692 36052 ft 485 kts 38°
2026-04-28 09:39 45.86564 5.92186 36028 ft 484 kts 38°
2026-04-28 09:40 45.91580 5.98670 36052 ft 485 kts 38°
2026-04-28 09:40 45.96565 6.05130 36049 ft 484 kts 38°
2026-04-28 09:41 46.01578 6.11643 36065 ft 485 kts 38°
2026-04-28 09:41 46.06704 6.17925 36031 ft 479 kts 26°
2026-04-28 09:42 46.09623 6.19959 36073 ft 468 kts 12°
2026-04-28 09:42 46.12793 6.20878 36068 ft 457 kts 358°
2026-04-28 09:42 46.19160 6.21361 36086 ft 457 kts 356°
2026-04-28 09:43 46.25496 6.21609 36074 ft 457 kts 355°
2026-04-28 09:43 46.31870 6.21803 36073 ft 457 kts 355°
2026-04-28 09:44 46.38234 6.21985 36067 ft 457 kts 355°
2026-04-28 09:44 46.44557 6.22163 36057 ft 458 kts 355°
2026-04-28 09:45 46.50939 6.22343 36049 ft 458 kts 355°
2026-04-28 09:45 46.57323 6.22523 36053 ft 458 kts 355°
2026-04-28 09:46 46.63714 6.22703 36043 ft 458 kts 355°
2026-04-28 09:46 46.70055 6.22882 36045 ft 458 kts 355°
2026-04-28 09:47 46.76440 6.23064 36047 ft 458 kts 355°
2026-04-28 09:47 46.82834 6.23245 36050 ft 458 kts 355°
2026-04-28 09:48 46.89173 6.23426 36037 ft 458 kts 355°
2026-04-28 09:48 46.95572 6.23608 36037 ft 458 kts 355°
2026-04-28 09:49 47.01919 6.23790 36048 ft 458 kts 355°
2026-04-28 09:49 47.05082 6.23642 35999 ft 450 kts 343°
2026-04-28 09:49 47.08024 6.22339 36034 ft 435 kts 330°
2026-04-28 09:50 47.13568 6.18615 36031 ft 437 kts 329°
2026-04-28 09:50 47.19036 6.14749 36035 ft 438 kts 328°
2026-04-28 09:51 47.24526 6.10788 36045 ft 439 kts 328°
2026-04-28 09:51 47.30023 6.06803 36038 ft 440 kts 328°
2026-04-28 09:52 47.35752 6.03640 36003 ft 454 kts 347°
2026-04-28 09:52 47.42163 6.03494 36015 ft 463 kts 354°
2026-04-28 09:53 47.48577 6.03584 36043 ft 464 kts 355°
2026-04-28 09:53 47.55054 6.03717 36043 ft 464 kts 355°
2026-04-28 09:54 47.61487 6.03858 36040 ft 464 kts 355°
2026-04-28 09:54 47.67958 6.04003 36044 ft 463 kts 355°
2026-04-28 09:55 47.74379 6.04160 36047 ft 463 kts 355°
2026-04-28 09:55 47.80830 6.04361 36046 ft 463 kts 355°
2026-04-28 09:56 47.87278 6.04559 36057 ft 462 kts 355°
2026-04-28 09:56 47.93711 6.04757 36051 ft 461 kts 355°
2026-04-28 09:57 47.96875 6.04855 35726 ft 458 kts 355°
2026-04-28 09:57 48.00084 6.04953 34920 ft 462 kts 354°
2026-04-28 09:57 48.03321 6.05052 34173 ft 464 kts 354°
2026-04-28 09:57 48.06520 6.05152 33380 ft 465 kts 354°
2026-04-28 09:58 48.09761 6.05253 32604 ft 466 kts 354°
2026-04-28 09:58 48.13013 6.05354 31814 ft 467 kts 354°
2026-04-28 09:58 48.16269 6.05456 31035 ft 468 kts 354°
2026-04-28 09:58 48.19538 6.05558 30220 ft 471 kts 354°
2026-04-28 09:59 48.22822 6.05661 29469 ft 469 kts 354°
2026-04-28 09:59 48.26035 6.05762 28858 ft 465 kts 354°
2026-04-28 09:59 48.29256 6.05983 28238 ft 466 kts
2026-04-28 09:59 48.32438 6.07237 27555 ft 476 kts 18°
2026-04-28 10:00 48.35354 6.09618 27047 ft 476 kts 27°
2026-04-28 10:00 48.38163 6.12221 26465 ft 472 kts 28°
2026-04-28 10:00 48.40913 6.14825 25864 ft 470 kts 28°
2026-04-28 10:00 48.43660 6.17466 25270 ft 467 kts 29°
2026-04-28 10:01 48.46388 6.20113 24695 ft 464 kts 30°
2026-04-28 10:01 48.49092 6.22745 24109 ft 461 kts 30°
2026-04-28 10:01 48.51780 6.25366 23506 ft 458 kts 30°
2026-04-28 10:01 48.54443 6.27966 22858 ft 455 kts 31°
2026-04-28 10:02 48.57089 6.30553 22279 ft 450 kts 31°
2026-04-28 10:02 48.59704 6.33113 21722 ft 445 kts 31°
2026-04-28 10:02 48.62267 6.35625 21169 ft 441 kts 31°
2026-04-28 10:02 48.64908 6.37942 20514 ft 436 kts 20°
2026-04-28 10:03 48.67815 6.39102 19895 ft 429 kts
2026-04-28 10:03 48.70768 6.39516 19378 ft 424 kts
2026-04-28 10:03 48.73700 6.39877 18846 ft 421 kts
2026-04-28 10:03 48.76621 6.40207 18307 ft 418 kts
2026-04-28 10:04 48.79519 6.40515 17721 ft 415 kts
2026-04-28 10:04 48.82356 6.40807 17191 ft 412 kts
2026-04-28 10:04 48.85215 6.41099 16674 ft 409 kts
2026-04-28 10:04 48.88048 6.41387 16114 ft 407 kts
2026-04-28 10:05 48.90873 6.41675 15586 ft 404 kts
2026-04-28 10:05 48.93668 6.41959 15080 ft 401 kts
2026-04-28 10:05 48.96455 6.42241 14576 ft 399 kts
2026-04-28 10:05 48.99184 6.42520 14107 ft 396 kts
2026-04-28 10:06 49.01921 6.42800 13595 ft 394 kts
2026-04-28 10:06 49.04664 6.43079 13081 ft 391 kts
2026-04-28 10:06 49.07376 6.43358 12599 ft 388 kts
2026-04-28 10:06 49.10029 6.43629 12134 ft 385 kts
2026-04-28 10:07 49.12696 6.43902 11668 ft 382 kts
2026-04-28 10:07 49.15340 6.44173 11302 ft 376 kts
2026-04-28 10:07 49.17914 6.44437 11154 ft 364 kts
2026-04-28 10:07 49.20410 6.44691 11045 ft 352 kts
2026-04-28 10:08 49.22777 6.44314 10857 ft 343 kts 342°
2026-04-28 10:08 49.24948 6.42895 10672 ft 335 kts 335°
2026-04-28 10:08 49.27052 6.41459 10498 ft 327 kts 336°
2026-04-28 10:08 49.29107 6.40056 10331 ft 320 kts 336°
2026-04-28 10:09 49.31103 6.38689 10166 ft 313 kts 336°
2026-04-28 10:09 49.33065 6.37343 10017 ft 305 kts 336°
2026-04-28 10:09 49.34986 6.36022 9777 ft 300 kts 336°
2026-04-28 10:09 49.36889 6.34710 9431 ft 300 kts 337°
2026-04-28 10:10 49.38152 6.33849 9188 ft 300 kts 339°
2026-04-28 10:10 49.40149 6.32991 8828 ft 297 kts 350°
2026-04-28 10:10 49.42177 6.32375 8520 ft 296 kts 350°
2026-04-28 10:10 49.44201 6.31744 8181 ft 295 kts 349°
2026-04-28 10:11 49.46195 6.31107 7865 ft 294 kts 350°
2026-04-28 10:11 49.48173 6.30302 7514 ft 295 kts 336°
2026-04-28 10:11 49.49797 6.28360 7061 ft 300 kts 306°
2026-04-28 10:11 49.50642 6.25476 6722 ft 296 kts 278°
2026-04-28 10:12 49.50590 6.22396 6410 ft 284 kts 253°
2026-04-28 10:12 49.49997 6.19573 6148 ft 276 kts 248°
2026-04-28 10:12 49.49390 6.16775 5898 ft 275 kts 249°
2026-04-28 10:12 49.48769 6.13965 5547 ft 277 kts 249°
2026-04-28 10:13 49.48151 6.11197 5357 ft 271 kts 248°
2026-04-28 10:13 49.47543 6.08499 5252 ft 263 kts 248°
2026-04-28 10:13 49.47126 6.05786 5021 ft 262 kts 270°
2026-04-28 10:13 49.47577 6.03118 4780 ft 257 kts 303°
2026-04-28 10:14 49.48752 6.01227 4709 ft 241 kts 330°
2026-04-28 10:14 49.50135 5.99927 4732 ft 225 kts 333°
2026-04-28 10:14 49.51481 5.98782 4652 ft 216 kts 344°
2026-04-28 10:14 49.52935 5.98559 4271 ft 208 kts 17°
2026-04-28 10:15 49.54160 5.99513 4010 ft 195 kts 47°
2026-04-28 10:15 49.55038 6.01052 3818 ft 190 kts 59°
2026-04-28 10:15 49.55753 6.02764 3539 ft 186 kts 63°
2026-04-28 10:15 49.56397 6.04424 3313 ft 172 kts 64°
2026-04-28 10:16 49.56958 6.05934 3126 ft 150 kts 64°
2026-04-28 10:16 49.57482 6.07301 2984 ft 145 kts 60°
2026-04-28 10:16 49.57984 6.08616 2729 ft 139 kts 62°
2026-04-28 10:16 49.58455 6.09909 2554 ft 140 kts 62°
2026-04-28 10:17 49.58942 6.11215 2318 ft 140 kts 60°
2026-04-28 10:17 49.59427 6.12520 2098 ft 138 kts 59°
2026-04-28 10:17 49.59898 6.13781 1931 ft 136 kts 60°
2026-04-28 10:17 49.60372 6.15061 1697 ft 141 kts 59°
2026-04-28 10:18 49.60864 6.16374 1517 ft 139 kts 59°
2026-04-28 10:18 49.61353 6.17693 1345 ft 143 kts 57°
2026-04-28 10:18 49.61833 6.18990 1194 ft 137 kts 58°
2026-04-28 10:18 49.62242 6.20074 1227 ft 88 kts 59°
2026-04-28 10:19 49.62450 6.20581 1242 ft 21 kts 30°
2026-04-28 10:19 49.62600 6.20657 1247 ft 24 kts 20°
2026-04-28 10:19 49.62757 6.20748 1249 ft 23 kts 21°
2026-04-28 10:19 49.62844 6.20892 1243 ft 19 kts 66°
2026-04-28 10:20 49.62901 6.21078 1245 ft 20 kts 64°
2026-04-28 10:20 49.62964 6.21278 1247 ft 21 kts 64°
2026-04-28 10:20 49.63029 6.21486 1243 ft 21 kts 64°
2026-04-28 10:20 49.63090 6.21680 1243 ft 20 kts 64°
2026-04-28 10:21 49.63149 6.21869 1239 ft 19 kts 64°
2026-04-28 10:21 49.63200 6.22035 1246 ft 18 kts 65°
2026-04-28 10:21 49.63280 6.22106 1239 ft 13 kts 322°
2026-04-28 10:21 49.63346 6.22005 1245 ft 14 kts 313°
2026-04-28 10:22 49.63350 6.21873 1239 ft 13 kts 254°
2026-04-28 10:22 49.63305 6.21741 1242 ft 15 kts 240°
2026-04-28 10:22 49.63277 6.21594 1241 ft 12 kts 251°
2026-04-28 10:22 49.63275 6.21543 1241 ft 4 kts 307°
2026-04-28 10:23 49.63299 6.21516 1239 ft 5 kts 330°
2026-04-28 10:23 49.63312 6.21505 1241 ft 1 kts 330°
2026-04-28 10:23 49.63312 6.21504 1241 ft 0 kts 330°